Location: Baumgarten
(49.0970°N, 12.7493°E)
Time: 08:03:21
(UTC+00:00)

Okean 3 Rocket - Pass Details

Date: 05 July 2020
Orbit: 614 x 645 km, 82.5° (Epoch: 04 August)

Event Time Altitude Azimuth Distance (km) Brightness Sun altitude
Exits shadow 22:47:01 34° 202° (SSW) 1,051 4.3 -18.0°
Maximum altitude 22:48:56 74° 280° (W) 659 3.6 -18.0°
Drops below altitude 10° 22:53:23 10° 7° (N) 2,008 7.4 -18.1°
Sets 22:55:38 0° 9° (N) 2,915 8.5 -18.1°
